KRE6571 SKBO-SPZO

Flight info

Callsign KRE6571
Flight time N/A
Altitude 32000
Route POVSO5U POVSO UL300 IQT UV9 FANES UT335 ASBOB DCT DARKI
Aircraft B722/M-SDFGHRWY/C

Departure

Time 2026-04-30 17:41
Airport El Dorado International Airport (SKBO)

Arrival

Time N/A
Airport Alejandro Velasco Astete International Airport (SPZO)
Time Latitude Longitude Altitude Speed Heading
2026-04-30 17:39 4.62196 -74.17776 11729 ft 277 kts 268°
2026-04-30 17:41 4.57140 -74.30624 15713 ft 284 kts 224°
2026-04-30 17:42 4.54007 -74.33803 15553 ft 331 kts 224°
2026-04-30 17:42 4.47707 -74.35719 17167 ft 327 kts 169°
2026-04-30 17:43 4.43304 -74.34412 18099 ft 331 kts 160°
2026-04-30 17:44 4.36177 -74.31895 18243 ft 382 kts 160°
2026-04-30 17:44 4.28638 -74.29233 19820 ft 386 kts 160°
2026-04-30 17:46 4.15320 -74.26176 21793 ft 399 kts 167°
2026-04-30 17:47 4.04271 -74.23766 23138 ft 408 kts 167°
2026-04-30 17:48 3.93022 -74.21495 24307 ft 416 kts 171°
2026-04-30 17:48 3.84302 -74.20390 25120 ft 422 kts 172°
2026-04-30 17:49 3.72563 -74.19017 26126 ft 429 kts 172°
2026-04-30 17:50 3.60607 -74.17626 27041 ft 435 kts 172°
2026-04-30 17:51 3.51553 -74.16573 27672 ft 439 kts 172°
2026-04-30 17:52 3.42373 -74.15505 28126 ft 448 kts 172°
2026-04-30 17:53 3.26674 -74.13680 28935 ft 457 kts 172°
2026-04-30 17:54 3.13924 -74.12197 29601 ft 462 kts 172°
2026-04-30 17:55 3.01064 -74.10702 30183 ft 467 kts 172°
2026-04-30 17:56 2.88580 -74.09251 31513 ft 450 kts 172°
2026-04-30 17:57 2.79176 -74.08159 31836 ft 452 kts 173°
2026-04-30 17:58 2.69757 -74.07065 32142 ft 455 kts 173°
2026-04-30 17:59 2.57196 -74.05606 32530 ft 457 kts 173°
2026-04-30 18:00 2.44977 -74.04188 33959 ft 430 kts 173°
2026-04-30 18:00 2.35823 -74.03125 32855 ft 463 kts 173°
2026-04-30 18:01 2.29301 -74.02367 31921 ft 491 kts 173°
2026-04-30 18:02 2.18960 -74.01167 32037 ft 497 kts 173°
2026-04-30 18:02 2.08645 -73.99970 32323 ft 501 kts 173°
2026-04-30 18:04 1.87618 -73.97531 32224 ft 507 kts 173°
2026-04-30 18:06 1.59845 -73.94309 32275 ft 498 kts 173°
2026-04-30 18:07 1.46042 -73.92709 32031 ft 501 kts 173°
2026-04-30 18:08 1.35640 -73.91502 31943 ft 501 kts 173°
2026-04-30 18:10 1.08063 -73.88305 31988 ft 498 kts 173°
2026-04-30 18:11 0.84047 -73.85521 31937 ft 497 kts 173°
2026-04-30 18:13 0.66961 -73.83540 31937 ft 495 kts 173°
2026-04-30 18:14 0.49882 -73.81561 31938 ft 494 kts 173°
2026-04-30 18:15 0.29409 -73.79188 31896 ft 494 kts 173°
2026-04-30 18:16 0.15726 -73.77602 31863 ft 495 kts 173°
2026-04-30 18:17 0.08887 -73.76810 31859 ft 494 kts 173°
2026-04-30 18:18 -0.01319 -73.75627 31913 ft 493 kts 173°
2026-04-30 18:18 -0.08110 -73.74840 31914 ft 493 kts 173°
2026-04-30 18:19 -0.14929 -73.74050 31910 ft 493 kts 173°
2026-04-30 18:19 -0.21721 -73.73263 31910 ft 493 kts 173°
2026-04-30 18:20 -0.28542 -73.72472 31910 ft 493 kts 173°
2026-04-30 18:20 -0.35382 -73.71680 31911 ft 492 kts 173°
2026-04-30 18:21 -0.42199 -73.70890 31911 ft 492 kts 173°
2026-04-30 18:21 -0.48980 -73.70104 31911 ft 492 kts 173°
2026-04-30 18:22 -0.55881 -73.69304 31912 ft 492 kts 173°
2026-04-30 18:22 -0.66080 -73.68122 31911 ft 492 kts 173°
2026-04-30 18:23 -0.72870 -73.67335 31889 ft 493 kts 173°
2026-04-30 18:23 -0.79717 -73.66541 31867 ft 493 kts 173°
2026-04-30 18:24 -0.89944 -73.65356 31859 ft 494 kts 173°
2026-04-30 18:25 -0.96781 -73.64563 31860 ft 494 kts 173°
2026-04-30 18:25 -1.07038 -73.63375 31861 ft 494 kts 172°
2026-04-30 18:26 -1.17305 -73.62184 31856 ft 494 kts 172°
2026-04-30 18:27 -1.27565 -73.60995 31856 ft 493 kts 172°
2026-04-30 18:28 -1.37746 -73.59815 31856 ft 492 kts 172°
2026-04-30 18:28 -1.47990 -73.58627 31857 ft 492 kts 172°
2026-04-30 18:29 -1.61562 -73.57054 31857 ft 492 kts 172°
2026-04-30 18:30 -1.75158 -73.55478 31858 ft 492 kts 172°
2026-04-30 18:31 -1.85318 -73.54300 31858 ft 492 kts 172°
2026-04-30 18:32 -1.95519 -73.53117 31858 ft 492 kts 172°
2026-04-30 18:33 -2.05682 -73.51938 31859 ft 492 kts 172°
2026-04-30 18:33 -2.15866 -73.50757 31856 ft 492 kts 172°
2026-04-30 18:34 -2.26061 -73.49574 31856 ft 492 kts 172°
2026-04-30 18:35 -2.32880 -73.48783 31856 ft 491 kts 172°
2026-04-30 18:35 -2.39629 -73.48000 31856 ft 491 kts 172°
2026-04-30 18:36 -2.49849 -73.46814 31857 ft 491 kts 172°
2026-04-30 18:37 -2.60030 -73.45632 31857 ft 492 kts 172°
2026-04-30 18:37 -2.66782 -73.44848 31857 ft 492 kts 172°
2026-04-30 18:38 -2.73578 -73.44059 31857 ft 492 kts 172°
2026-04-30 18:38 -2.80380 -73.43269 31858 ft 492 kts 172°
2026-04-30 18:39 -2.87214 -73.42476 31858 ft 492 kts 172°
2026-04-30 18:39 -2.93980 -73.41689 31857 ft 492 kts 172°
2026-04-30 18:40 -3.00799 -73.40897 31858 ft 493 kts 172°
2026-04-30 18:40 -3.07593 -73.40108 31860 ft 493 kts 172°
2026-04-30 18:41 -3.14398 -73.39318 31855 ft 493 kts 172°
2026-04-30 18:41 -3.21220 -73.38525 31856 ft 494 kts 172°
2026-04-30 18:42 -3.28046 -73.37733 31856 ft 494 kts 172°
2026-04-30 18:42 -3.38299 -73.36540 31856 ft 494 kts 172°
2026-04-30 18:45 -3.76013 -73.32175 31854 ft 496 kts 175°
2026-04-30 18:45 -3.79457 -73.32303 31872 ft 496 kts 186°
2026-04-30 18:46 -3.82884 -73.32908 31864 ft 496 kts 192°
2026-04-30 18:46 -3.89609 -73.34605 31860 ft 496 kts 195°
2026-04-30 18:47 -3.96301 -73.36413 31861 ft 497 kts 195°
2026-04-30 18:47 -4.03044 -73.38245 31861 ft 498 kts 195°
2026-04-30 18:48 -4.09751 -73.40069 31861 ft 498 kts 195°
2026-04-30 18:48 -4.16467 -73.41895 31857 ft 499 kts 195°
2026-04-30 18:49 -4.23203 -73.43727 31857 ft 499 kts 195°
2026-04-30 18:49 -4.29908 -73.45551 31858 ft 499 kts 195°
2026-04-30 18:50 -4.36634 -73.47382 31858 ft 500 kts 195°
2026-04-30 18:50 -4.43367 -73.49214 31858 ft 500 kts 195°
2026-04-30 18:51 -4.50065 -73.51038 31859 ft 501 kts 195°
2026-04-30 18:51 -4.56811 -73.52874 31859 ft 501 kts 195°
2026-04-30 18:52 -4.63558 -73.54711 31859 ft 502 kts 195°
2026-04-30 18:52 -4.70282 -73.56541 31860 ft 502 kts 195°
2026-04-30 18:53 -4.77066 -73.58389 31860 ft 503 kts 195°
2026-04-30 18:53 -4.83831 -73.60232 31860 ft 504 kts 195°
2026-04-30 18:54 -4.90582 -73.62071 31861 ft 504 kts 195°
2026-04-30 18:54 -4.97384 -73.63924 31861 ft 505 kts 195°
2026-04-30 18:55 -5.04125 -73.65759 31861 ft 505 kts 195°
2026-04-30 18:55 -5.14342 -73.68545 31857 ft 506 kts 196°
2026-04-30 18:56 -5.24557 -73.71333 31857 ft 506 kts 196°
2026-04-30 18:57 -5.34780 -73.74121 31857 ft 506 kts 196°
2026-04-30 18:57 -5.41582 -73.75977 31858 ft 506 kts 196°
2026-04-30 18:58 -5.51809 -73.78769 31858 ft 506 kts 196°
2026-04-30 18:59 -5.61994 -73.81550 31858 ft 507 kts 196°
2026-04-30 19:00 -5.75662 -73.85284 31859 ft 507 kts 196°
2026-04-30 19:01 -5.89293 -73.89009 31898 ft 507 kts 196°
2026-04-30 19:02 -5.99502 -73.91801 31914 ft 507 kts 196°
2026-04-30 19:03 -6.13127 -73.95528 31907 ft 508 kts 196°
2026-04-30 19:04 -6.26756 -73.99258 31882 ft 509 kts 196°
2026-04-30 19:05 -6.40434 -74.03004 31882 ft 508 kts 196°
2026-04-30 19:06 -6.54078 -74.06741 31885 ft 509 kts 196°
2026-04-30 19:06 -6.64366 -74.09562 31885 ft 509 kts 196°
2026-04-30 19:07 -6.74626 -74.12376 31886 ft 509 kts 196°
2026-04-30 19:08 -6.88309 -74.16131 31886 ft 510 kts 196°
2026-04-30 19:09 -6.98566 -74.18945 31886 ft 510 kts 196°
2026-04-30 19:09 -7.05453 -74.20836 31887 ft 511 kts 197°
2026-04-30 19:10 -7.19286 -74.24638 31882 ft 513 kts 197°
2026-04-30 19:11 -7.29606 -74.27476 31883 ft 513 kts 197°
2026-04-30 19:12 -7.36559 -74.29388 31883 ft 514 kts 197°
2026-04-30 19:12 -7.43487 -74.31266 31876 ft 514 kts 193°
2026-04-30 19:13 -7.50608 -74.31528 31883 ft 512 kts 168°
2026-04-30 19:13 -7.57280 -74.29047 31888 ft 511 kts 156°
2026-04-30 19:14 -7.63822 -74.26189 31886 ft 512 kts 156°
2026-04-30 19:14 -7.70345 -74.23341 31886 ft 513 kts 156°
2026-04-30 19:15 -7.76924 -74.20467 31887 ft 514 kts 156°
2026-04-30 19:15 -7.86836 -74.16138 31887 ft 515 kts 156°
2026-04-30 19:16 -7.93388 -74.13274 31888 ft 515 kts 156°
2026-04-30 19:17 -8.03355 -74.08917 31888 ft 517 kts 156°
2026-04-30 19:17 -8.13351 -74.04544 31882 ft 518 kts 156°
2026-04-30 19:18 -8.23300 -74.00190 31883 ft 518 kts 156°
2026-04-30 19:19 -8.29942 -73.97282 31883 ft 518 kts 156°
2026-04-30 19:19 -8.39914 -73.92913 31884 ft 519 kts 156°
2026-04-30 19:20 -8.46580 -73.89992 31885 ft 519 kts 156°
2026-04-30 19:21 -8.56554 -73.85618 31885 ft 519 kts 156°
2026-04-30 19:22 -8.69841 -73.79788 31887 ft 520 kts 156°
2026-04-30 19:23 -8.89891 -73.70982 31888 ft 521 kts 156°
2026-04-30 19:24 -8.99913 -73.66577 31887 ft 522 kts 156°
2026-04-30 19:25 -9.16643 -73.59218 31884 ft 525 kts 157°
2026-04-30 19:26 -9.30014 -73.53332 31885 ft 526 kts 157°
2026-04-30 19:27 -9.40119 -73.48880 31886 ft 527 kts 157°
2026-04-30 19:27 -9.47129 -73.46779 31891 ft 524 kts 171°
2026-04-30 19:28 -9.50713 -73.46157 31889 ft 525 kts 172°
2026-04-30 19:29 -9.65240 -73.43985 31889 ft 526 kts 173°
2026-04-30 19:30 -9.79822 -73.41836 31890 ft 528 kts 173°
2026-04-30 19:31 -9.94445 -73.39680 31891 ft 530 kts 173°
2026-04-30 19:31 -10.05468 -73.38052 31892 ft 531 kts 173°
2026-04-30 19:32 -10.12831 -73.36965 31885 ft 531 kts 173°
2026-04-30 19:32 -10.20199 -73.35877 31885 ft 532 kts 173°
2026-04-30 19:33 -10.27550 -73.34790 31883 ft 532 kts 173°
2026-04-30 19:33 -10.34895 -73.33704 31882 ft 532 kts 173°
2026-04-30 19:34 -10.42253 -73.32614 31891 ft 531 kts 173°
2026-04-30 19:34 -10.49551 -73.31534 32013 ft 529 kts 173°
2026-04-30 19:35 -10.53206 -73.30993 32068 ft 528 kts 173°
2026-04-30 19:35 -10.60459 -73.29918 32174 ft 526 kts 173°
2026-04-30 19:36 -10.67691 -73.28846 32312 ft 524 kts 173°
2026-04-30 19:36 -10.78510 -73.27241 32452 ft 523 kts 173°
2026-04-30 19:37 -10.85715 -73.26173 32455 ft 524 kts 173°
2026-04-30 19:37 -10.92933 -73.25102 32432 ft 525 kts 173°
2026-04-30 19:38 -11.00244 -73.24017 32371 ft 528 kts 172°
2026-04-30 19:38 -11.07538 -73.22932 32316 ft 530 kts 172°
2026-04-30 19:39 -11.14885 -73.21838 32292 ft 532 kts 172°
2026-04-30 19:39 -11.22226 -73.20746 32287 ft 532 kts 172°
2026-04-30 19:40 -11.29515 -73.19661 32287 ft 533 kts 172°
2026-04-30 19:40 -11.36902 -73.18560 32289 ft 533 kts 172°
2026-04-30 19:41 -11.44184 -73.17475 32289 ft 533 kts 173°
2026-04-30 19:41 -11.51602 -73.16370 32290 ft 534 kts 173°
2026-04-30 19:42 -11.58949 -73.15274 32290 ft 534 kts 173°
2026-04-30 19:42 -11.66315 -73.14175 32291 ft 534 kts 173°
2026-04-30 19:43 -11.73676 -73.13075 32292 ft 534 kts 173°
2026-04-30 19:44 -11.84688 -73.11430 32293 ft 535 kts 173°
2026-04-30 19:44 -11.92069 -73.10326 32293 ft 535 kts 173°
2026-04-30 19:45 -11.99428 -73.09225 32293 ft 534 kts 173°
2026-04-30 19:45 -12.06782 -73.08124 32294 ft 533 kts 173°
2026-04-30 19:46 -12.14086 -73.07031 32286 ft 533 kts 173°
2026-04-30 19:46 -12.21381 -73.05937 32310 ft 531 kts 173°
2026-04-30 19:47 -12.28682 -73.04843 32365 ft 529 kts 173°
2026-04-30 19:47 -12.35928 -73.03756 32414 ft 528 kts 173°
2026-04-30 19:48 -12.43184 -73.02666 32423 ft 527 kts 173°
2026-04-30 19:48 -12.50410 -73.01582 32434 ft 527 kts 174°
2026-04-30 19:49 -12.57639 -73.00495 32459 ft 526 kts 174°
2026-04-30 19:49 -12.68475 -72.98865 32480 ft 525 kts 174°
2026-04-30 19:50 -12.75687 -72.97780 32481 ft 525 kts 174°
2026-04-30 19:50 -12.82907 -72.96693 32482 ft 525 kts 174°
2026-04-30 19:51 -12.90133 -72.95605 32482 ft 525 kts 174°
2026-04-30 19:51 -12.97385 -72.94511 32478 ft 525 kts 174°
2026-04-30 19:52 -13.04578 -72.93426 32476 ft 525 kts 174°
2026-04-30 19:52 -13.11848 -72.92330 32473 ft 527 kts 174°
2026-04-30 19:53 -13.19132 -72.91230 32476 ft 527 kts 174°
2026-04-30 19:53 -13.26354 -72.90138 32477 ft 528 kts 174°
2026-04-30 19:54 -13.29942 -72.89594 32712 ft 508 kts 174°
2026-04-30 19:54 -13.33341 -72.88943 32928 ft 489 kts 164°
2026-04-30 19:54 -13.36174 -72.87689 32514 ft 485 kts 149°
2026-04-30 19:54 -13.38725 -72.85683 31895 ft 483 kts 133°
2026-04-30 19:55 -13.40132 -72.83952 31505 ft 478 kts 121°
2026-04-30 19:55 -13.41694 -72.81007 31003 ft 469 kts 112°
2026-04-30 19:55 -13.43040 -72.77964 30521 ft 462 kts 105°
2026-04-30 19:55 -13.43669 -72.74776 29995 ft 449 kts 90°
2026-04-30 19:56 -13.43731 -72.71624 29517 ft 441 kts 83°
2026-04-30 19:56 -13.43589 -72.68480 29044 ft 437 kts 81°
2026-04-30 19:56 -13.43379 -72.65393 28576 ft 433 kts 80°
2026-04-30 19:56 -13.43136 -72.62309 28105 ft 430 kts 81°
2026-04-30 19:57 -13.43052 -72.59259 27626 ft 430 kts 85°
2026-04-30 19:57 -13.43037 -72.56175 27156 ft 427 kts 85°
2026-04-30 19:57 -13.43030 -72.53165 26577 ft 417 kts 84°
2026-04-30 19:57 -13.42890 -72.50185 25586 ft 412 kts 82°
2026-04-30 19:58 -13.42717 -72.47263 24602 ft 409 kts 82°
2026-04-30 19:58 -13.42544 -72.44399 23722 ft 403 kts 82°
2026-04-30 19:58 -13.42373 -72.41577 23072 ft 390 kts 82°
2026-04-30 19:58 -13.42215 -72.38906 23034 ft 361 kts 82°
2026-04-30 19:59 -13.42059 -72.36386 22537 ft 349 kts 82°
2026-04-30 19:59 -13.42149 -72.33862 21693 ft 353 kts 93°
2026-04-30 19:59 -13.43240 -72.29000 20158 ft 345 kts 103°
2026-04-30 20:00 -13.43845 -72.26909 19660 ft 326 kts 103°
2026-04-30 20:00 -13.44456 -72.24808 18884 ft 318 kts 103°
2026-04-30 20:01 -13.45025 -72.22848 18398 ft 299 kts 103°
2026-04-30 20:01 -13.45387 -72.21658 18402 ft 280 kts 106°
2026-04-30 20:01 -13.46023 -72.19831 18424 ft 265 kts 106°
2026-04-30 20:02 -13.47229 -72.16168 18451 ft 275 kts 103°
2026-04-30 20:02 -13.47774 -72.14249 18452 ft 283 kts 103°
2026-04-30 20:03 -13.48067 -72.13213 18452 ft 287 kts 103°
2026-04-30 20:03 -13.48405 -72.12017 18444 ft 284 kts 103°
2026-04-30 20:03 -13.48698 -72.10986 18289 ft 282 kts 103°
2026-04-30 20:03 -13.49224 -72.09133 17782 ft 286 kts 103°
2026-04-30 20:04 -13.49773 -72.07394 17350 ft 288 kts 106°
2026-04-30 20:04 -13.50349 -72.05667 17114 ft 280 kts 106°
2026-04-30 20:04 -13.50987 -72.03760 17143 ft 282 kts 106°
2026-04-30 20:05 -13.51705 -71.99790 17170 ft 294 kts 74°
2026-04-30 20:05 -13.50907 -71.97879 17171 ft 292 kts 49°
2026-04-30 20:05 -13.47394 -71.95863 16737 ft 305 kts
2026-04-30 20:06 -13.45318 -71.96179 16710 ft 301 kts 338°
2026-04-30 20:06 -13.43576 -71.97372 16712 ft 300 kts 314°
2026-04-30 20:06 -13.42495 -71.99180 16709 ft 296 kts 293°
2026-04-30 20:06 -13.41862 -72.01141 16682 ft 284 kts 288°
2026-04-30 20:07 -13.41357 -72.03068 16674 ft 269 kts 287°
2026-04-30 20:07 -13.40919 -72.04870 16671 ft 252 kts 287°
2026-04-30 20:07 -13.40108 -72.08270 16721 ft 252 kts 287°
2026-04-30 20:08 -13.39686 -72.10021 16694 ft 248 kts 287°
2026-04-30 20:08 -13.39290 -72.11687 16660 ft 231 kts 287°
2026-04-30 20:08 -13.38930 -72.13231 16646 ft 211 kts 285°
2026-04-30 20:08 -13.39056 -72.14681 16578 ft 208 kts 247°
2026-04-30 20:09 -13.40027 -72.15761 16708 ft 212 kts 211°
2026-04-30 20:09 -13.41491 -72.16107 16688 ft 220 kts 180°
2026-04-30 20:09 -13.44453 -72.15054 16754 ft 242 kts 151°
2026-04-30 20:10 -13.47160 -72.13554 15882 ft 248 kts 151°
2026-04-30 20:10 -13.48428 -72.12849 15276 ft 268 kts 151°
2026-04-30 20:10 -13.49912 -72.12022 15123 ft 252 kts 151°
2026-04-30 20:11 -13.51718 -72.09708 14741 ft 218 kts 91°
2026-04-30 20:11 -13.51472 -72.08317 14718 ft 182 kts 60°
2026-04-30 20:11 -13.50888 -72.07216 14526 ft 170 kts 55°
2026-04-30 20:12 -13.50367 -72.04975 14275 ft 172 kts 105°
2026-04-30 20:12 -13.50759 -72.03842 14248 ft 166 kts 107°
2026-04-30 20:12 -13.51156 -72.02720 13948 ft 172 kts 108°
2026-04-30 20:13 -13.51619 -72.01546 13500 ft 176 kts 110°
2026-04-30 20:13 -13.52091 -72.00409 12957 ft 171 kts 112°
2026-04-30 20:13 -13.52459 -71.99631 12480 ft 168 kts 114°
2026-04-30 20:13 -13.52915 -71.98558 11878 ft 163 kts 107°
2026-04-30 20:14 -13.53200 -71.97416 11479 ft 163 kts 97°
2026-04-30 20:14 -13.53331 -71.96317 11051 ft 158 kts 95°
2026-04-30 20:14 -13.53439 -71.95186 10867 ft 158 kts 96°
2026-04-30 20:14 -13.53546 -71.94122 10801 ft 142 kts 96°
2026-04-30 20:15 -13.53586 -71.93742 10779 ft 118 kts 96°
2026-04-30 20:15 -13.53660 -71.93011 10741 ft 111 kts 96°
2026-04-30 20:15 -13.53753 -71.92046 10719 ft 154 kts 97°
2026-04-30 20:15 -13.53854 -71.91264 10890 ft 157 kts 102°
2026-04-30 20:16 -13.53929 -71.90904 10970 ft 159 kts 104°
2026-04-30 20:16 -13.54010 -71.90588 11019 ft 161 kts 107°
2026-04-30 20:16 -13.54028 -71.90528 11028 ft 162 kts 108°
2026-04-30 20:16 -13.54444 -71.89364 11117 ft 182 kts 112°
2026-04-30 20:17 -13.54971 -71.88165 11510 ft 184 kts 114°
2026-04-30 20:17 -13.55517 -71.86954 11794 ft 195 kts 113°
2026-04-30 20:17 -13.56115 -71.85620 11968 ft 213 kts 113°
2026-04-30 20:17 -13.56528 -71.84695 12094 ft 224 kts 113°
2026-04-30 20:18 -13.57095 -71.83421 12328 ft 232 kts 113°
2026-04-30 20:18 -13.57758 -71.81929 12794 ft 233 kts 113°
2026-04-30 20:18 -13.58439 -71.80398 13244 ft 234 kts 112°
2026-04-30 20:18 -13.59115 -71.78875 13660 ft 236 kts 112°
2026-04-30 20:19 -13.59802 -71.77325 13962 ft 243 kts 112°
2026-04-30 20:19 -13.60272 -71.76262 14169 ft 247 kts 112°
2026-04-30 20:19 -13.61066 -71.74297 14597 ft 248 kts 102°
2026-04-30 20:19 -13.61440 -71.72578 14969 ft 249 kts 100°
2026-04-30 20:20 -13.61846 -71.70825 15342 ft 251 kts 101°
2026-04-30 20:20 -13.62279 -71.69074 15699 ft 253 kts 102°
2026-04-30 20:20 -13.62720 -71.67333 16058 ft 253 kts 102°
2026-04-30 20:20 -13.63167 -71.65579 16398 ft 255 kts 102°
2026-04-30 20:21 -13.63620 -71.63807 16710 ft 254 kts 101°
2026-04-30 20:21 -13.63958 -71.62482 16859 ft 255 kts 101°
2026-04-30 20:21 -13.64358 -71.60915 17004 ft 257 kts 101°
2026-04-30 20:21 -13.64699 -71.59579 17135 ft 259 kts 101°
2026-04-30 20:22 -13.65124 -71.57915 17305 ft 260 kts 101°
2026-04-30 20:22 -13.65582 -71.56125 17488 ft 260 kts 101°
2026-04-30 20:22 -13.66023 -71.54398 17660 ft 261 kts 101°
2026-04-30 20:22 -13.66123 -71.54005 17698 ft 261 kts 101°
2026-04-30 20:23 -13.66322 -71.53228 17772 ft 262 kts 101°
2026-04-30 20:23 -13.66386 -71.52977 17796 ft 262 kts 101°
2026-04-30 20:23 -13.66489 -71.52573 17834 ft 262 kts 101°
2026-04-30 20:23 -13.66934 -71.50832 17996 ft 263 kts 101°
2026-04-30 20:24 -13.66946 -71.50784 18000 ft 263 kts 101°
2026-04-30 20:24 -13.67061 -71.50333 18041 ft 263 kts 101°
2026-04-30 20:24 -13.67084 -71.50242 18049 ft 263 kts 101°
2026-04-30 20:25 -13.67695 -71.47850 18262 ft 264 kts 101°